Regional Weather Roundup
Issued by NWS Cleveland, OH

Home | Current Version | Previous Version | Graphics & Text | Print | Product List | Glossary On
Versions: 1 2 3 4 5 6 7 8 9 10 11 12 13 14 15 16 17 18 19 20 21 22 23 24 25 26 27 28 29 30 31 32 33 34 35 36 37 38 39 40 41 42 43 44 45 46 47 48 49 50
000
ASUS41 KCLE 022312
RWRCLE
OHIO REGIONAL WEATHER ROUNDUP
NATIONAL WEATHER SERVICE WILMINGTON, OH
700 PM EDT MON MAY 02 2016

NOTE: "FAIR" INDICATES FEW OR NO CLOUDS BELOW 12,000 FEET WITH NO
SIGNIFICANT WEATHER AND/OR OBSTRUCTIONS TO VISIBILITY.

OHZ001>008-015>018-024>027-034-035-043-044-030000-
   NORTHWEST OHIO

CITY           SKY/WX    TMP DP  RH WIND       PRES   REMARKS
DEFIANCE       CLOUDY    51  47  86 NE8       29.99R
FINDLAY        CLOUDY    53  44  71 NE12      29.97R
TOLEDO EXPRESS CLOUDY    52  45  77 N9        29.98S
TOLEDO EXEC    CLOUDY    53  44  71 NE5       30.00S
LIMA           CLOUDY    52  48  86 NE8       29.96S
$$

OHZ009>014-019>023-028>033-038-089-030000-
   NORTHEAST OHIO

CITY           SKY/WX    TMP DP  RH WIND       PRES   REMARKS
CLE-HOPKINS    CLOUDY    49  42  77 NE8       30.01S
CLE-LAKEFRONT  CLOUDY    48  44  86 N12       29.99S
CUY CO. ARPT   CLOUDY    52  45  76 NE7       29.99R
LORAIN-ELYRIA  CLOUDY    48  42  80 NE9       29.99S
ASHTABULA      FAIR      47  41  80 N5        29.99R
AKRON-CANTON   CLOUDY    51  45  79 N9        29.96R
WOOSTER        CLOUDY    50  45  83 N8        29.97R
MANSFIELD      CLOUDY    50  45  83 N8        29.96F
YOUNGSTOWN     CLOUDY    49  43  80 N12       29.96S
$$

OHZ042-051>053-060>062-070>072-077>081-030000-
  SOUTHWEST OHIO

CITY           SKY/WX    TMP DP  RH WIND       PRES   REMARKS
CINC-COVINGTON PTSUNNY   62  52  69 NW10      29.92S
CINC-LUNKEN    PTSUNNY   64  53  67 NW6       29.91S
HAMILTON       PTSUNNY   61  54  77 N7        29.94R
DAYTON         CLOUDY    56  51  84 N12       29.95S
WRIGHT-PAT AFB CLOUDY    57  53  85 N8        29.94R
DAYTON GENERAL CLOUDY    58  50  75 N12       29.92R
WILMINGTON     PTSUNNY   59  54  83 NE14      29.91S
$$

OHZ036-037-039>041-045>050-054>059-063>069-073>076-082>088-030000-
  CENTRAL AND SOUTHEAST OHIO

CITY           SKY/WX    TMP DP  RH WIND       PRES   REMARKS
COLUMBUS       CLOUDY    55  52  88 N9        29.92F
OSU AIRPORT    PTSUNNY   55  49  80 N8        29.93F
BOLTON FIELD   PTSUNNY   55  52  88 NE7       29.94S
RICKENBACK AFB CLOUDY    58  51  79 N8        29.92F
NEWARK         FAIR      57  49  74 N8        29.93F
MARION         CLOUDY    52  46  80 NE9       29.97R
LANCASTER      PTSUNNY   60  53  77 N8        29.92S
ZANESVILLE     CLOUDY    58  49  72 N7        29.93R
NEW PHILLY     CLOUDY    55  47  74 N6        29.96R
$$




USA.gov is the U.S. government's official web portal to all federal, state and local government web resources and services.